{"data":{"norad_id":53037,"epoch":"2026-09-20T01:35:08.275200Z","epoch_age_seconds":106931,"freshness":"FRESH","line1":"1 53037U 22076BD  26263.06606800  .00002963  00000+0  95793-4 0  9996","line2":"2 53037  53.1596 276.4097 0001189  80.9031 279.2106 15.35405444232531","mean_motion":15.35405444,"eccentricity":0.0001189,"inclination_deg":53.1596,"raan_deg":276.4097,"arg_perigee_deg":80.9031,"mean_anomaly_deg":279.2106,"bstar":9.5793e-5,"rev_number":23253,"period_min":93.786302870501,"perigee_km":458.9034588551,"apogee_km":460.52950041255,"semimajor_km":6837.8534796338,"source":"CELESTRAK","updated_at":"2026-09-20T09:00:40.149321Z"}}